Terug naar catalogus

FENGYUN 1C DEB

ActiefSSO
NORAD 29949·DEBRIS·🇨🇳 China

Gelanceerd May 10, 1999 vanaf Taiyuan Satellite Launch Center

Loading…

Volgende Passages (komende 24 uur)

TLE

VersSource: Space-Track

Epoch: Sep 13, 2026, 16:13 UTC

1 29949U 99025JX  26256.67638594 -.00000113  00000-0 -41920-4 0  9994
2 29949  98.7528 268.6478 0023026 249.2121 228.3818 14.06869316  9734

Volg FENGYUN 1C DEB in realtime met AllMySat

Download on the App Store